Location: Feydey
(46.3431°N, 7.0106°E)
Time: 08:28:57
(UTC+00:00)

deb Atmosphere 2 - Visible Passes

Search period start: 29 January 2022 00:00
Search period end: 08 February 2022 00:00
Orbit: 828 x 840 km, 98.6° (Epoch: 28 January)

Date Brightness Start Highest point End Pass type
(mag) Time Alt. Az. Time Alt. Az. Time Alt. Az.
29 Jan ? 03:59:40 10° NE 04:04:05 25° E 04:08:28 10° SSE visible
29 Jan ? 05:39:28 10° N 05:44:44 51° WNW 05:49:58 10° SW visible
29 Jan ? 17:07:31 10° SW 17:11:52 24° W 17:16:15 10° NW visible
30 Jan ? 03:43:32 10° NE 03:47:11 18° E 03:50:48 10° SE visible
30 Jan ? 05:22:39 10° N 05:28:05 70° WNW 05:33:28 10° SSW visible
31 Jan ? 03:27:53 10° ENE 03:30:14 13° E 03:32:34 10° ESE visible
31 Jan ? 05:05:55 10° NNE 05:11:24 87° ESE 05:16:49 10° SSW visible
01 Feb ? 04:49:15 10° NNE 04:54:40 64° ESE 05:00:02 10° S visible
02 Feb ? 04:32:38 10° NNE 04:37:53 46° E 04:43:05 10° S visible
02 Feb ? 06:13:27 10° N 06:18:02 28° WNW 06:22:35 10° WSW visible
02 Feb ? 17:43:42 10° WSW 17:45:52 12° W 17:48:03 10° WNW visible
03 Feb ? 04:16:09 10° NNE 04:21:04 34° E 04:25:57 10° SSE visible
03 Feb ? 05:56:29 10° N 06:01:28 38° WNW 06:06:24 10° SW visible
03 Feb ? 17:25:22 10° SW 17:28:54 17° W 17:32:28 10° NW visible
04 Feb ? 03:59:47 10° NE 04:04:12 25° E 04:08:36 10° SSE visible
04 Feb ? 05:39:36 10° N 05:44:51 51° WNW 05:50:04 10° SW visible
04 Feb ? 17:07:39 10° SW 17:12:00 24° W 17:16:22 10° NW visible
05 Feb ? 03:43:39 10° NE 03:47:18 18° E 03:50:56 10° SE visible
05 Feb ? 05:22:47 10° N 05:28:12 69° WNW 05:33:34 10° SSW visible
06 Feb ? 03:27:58 10° ENE 03:30:21 13° E 03:32:43 10° ESE visible
06 Feb ? 05:06:02 10° NNE 05:11:30 88° ESE 05:16:55 10° SSW visible
07 Feb ? 04:49:21 10° NNE 04:54:47 65° ESE 05:00:08 10° S visible
